Location: Vulcan
(50.4000°N, 113.2500°W)
Time: 00:48:04
(UTC-07:00)

Transit 4A - All Passes

Search period start: 21 November 2019 00:00
Search period end: 01 December 2019 00:00
Orbit: 869 x 976 km, 66.8° (Epoch: 20 November)

Date Brightness Start Highest point End Pass type
(mag) Time Alt. Az. Time Alt. Az. Time Alt. Az.
21 Nov - 00:04:40 10° W 00:10:10 32° NW 00:15:34 10° NNE night (unlit)
21 Nov - 01:54:34 10° NW 01:58:28 17° N 02:02:20 10° NNE visible
21 Nov - 03:42:49 10° NNW 03:47:12 20° NNE 03:51:29 10° ENE visible
21 Nov - 05:29:13 10° NNW 05:35:00 50° NE 05:40:40 10° ESE visible
21 Nov - 07:15:50 10° NW 07:21:16 39° WSW 07:26:36 10° S visible
21 Nov - 20:41:59 10° SSE 20:46:47 24° ESE 20:51:30 10° ENE night (unlit)
21 Nov - 22:26:19 10° SW 22:32:34 80° NW 22:38:41 10° NE night (unlit)
22 Nov - 00:14:41 10° W 00:19:50 27° NNW 00:24:53 10° NNE night (unlit)
22 Nov - 02:04:34 10° NW 02:08:20 17° N 02:12:03 10° NE visible
22 Nov - 03:52:15 10° NNW 03:56:58 23° NNE 04:01:36 10° ENE visible
22 Nov - 05:38:32 10° NW 05:44:28 66° NE 05:50:15 10° SE visible
22 Nov - 07:25:29 10° NW 07:30:23 28° WSW 07:35:13 10° SSW daylight
22 Nov - 20:50:24 10° S 20:55:53 33° ESE 21:01:15 10° NE night (unlit)
22 Nov - 22:35:50 10° SW 22:41:59 61° NW 22:48:01 10° NNE night (unlit)
23 Nov - 00:24:48 10° WNW 00:29:34 23° NNW 00:34:14 10° NNE night (unlit)
23 Nov - 02:14:28 10° NW 02:18:13 17° N 02:21:55 10° NE visible
23 Nov - 04:01:37 10° NNW 04:06:41 27° NNE 04:11:38 10° E visible
23 Nov - 05:47:52 10° NW 05:53:51 88° NE 05:59:41 10° SE visible
23 Nov - 07:35:23 10° WNW 07:39:25 19° WSW 07:43:26 10° SSW daylight
23 Nov - 20:59:09 10° S 21:05:03 46° ESE 21:10:50 10° NE night (unlit)
23 Nov - 22:45:30 10° WSW 22:51:28 47° NW 22:57:19 10° NNE night (unlit)
24 Nov - 00:34:58 10° WNW 00:39:21 20° NNW 00:43:40 10° NNE night (unlit)
24 Nov - 02:24:11 10° NNW 02:28:05 17° N 02:31:55 10° NE visible
24 Nov - 04:10:57 10° NNW 04:16:20 33° NE 04:21:36 10° E visible
24 Nov - 05:57:16 10° NW 06:03:10 69° WSW 06:08:55 10° SSE visible
24 Nov - 07:45:50 10° WNW 07:48:24 13° WSW 07:50:57 10° SW daylight
24 Nov - 19:26:29 10° SE 19:29:02 13° ESE 19:31:34 10° ENE night (unlit)
24 Nov - 21:08:08 10° SSW 21:14:17 64° ESE 21:20:18 10° NE night (unlit)
24 Nov - 22:55:20 10° WSW 23:01:02 37° NW 23:06:36 10° NNE night (unlit)
25 Nov - 00:45:07 10° NW 00:49:10 18° NNW 00:53:10 10° NNE night (unlit)
25 Nov - 02:33:46 10° NNW 02:37:55 19° NNE 02:42:00 10° ENE visible
25 Nov - 04:20:16 10° NNW 04:25:55 42° NE 04:31:26 10° ESE visible
25 Nov - 06:06:43 10° NW 06:12:23 49° WSW 06:17:57 10° S visible
25 Nov - 19:33:52 10° SSE 19:38:01 19° ESE 19:42:06 10° ENE night (unlit)
25 Nov - 21:17:20 10° SSW 21:23:35 86° SE 21:29:42 10° NE night (unlit)
25 Nov - 23:05:18 10° W 23:10:40 30° NNW 23:15:54 10° NNE night (unlit)
26 Nov - 00:55:13 10° NW 00:59:02 17° N 01:02:48 10° NNE night (unlit)
26 Nov - 02:43:15 10° NNW 02:47:44 21° NNE 02:52:07 10° ENE visible
26 Nov - 04:29:34 10° NNW 04:35:25 55° NE 04:41:08 10° ESE visible
26 Nov - 06:16:18 10° NW 06:21:34 35° WSW 06:26:44 10° S visible
26 Nov - 19:42:00 10° SSE 19:47:04 27° ESE 19:52:03 10° NE visible
26 Nov - 21:26:45 10° SW 21:32:58 73° NW 21:39:03 10° NE night (unlit)
26 Nov - 23:15:21 10° W 23:20:21 25° NNW 23:25:15 10° NNE night (unlit)
27 Nov - 01:05:11 10° NW 01:08:54 16° N 01:12:34 10° NE night (unlit)
27 Nov - 02:52:39 10° NNW 02:57:29 24° NNE 03:02:13 10° E visible
27 Nov - 04:38:54 10° NW 04:44:51 73° NE 04:50:40 10° SE visible
27 Nov - 06:26:01 10° WNW 06:30:39 25° WSW 06:35:13 10° SSW visible
27 Nov - 19:50:33 10° S 19:56:12 37° ESE 20:01:43 10° NE visible
27 Nov - 21:36:20 10° WSW 21:42:24 55° NW 21:48:21 10° NNE visible
27 Nov - 23:25:30 10° WNW 23:30:06 21° NNW 23:34:38 10° NNE night (unlit)
28 Nov - 01:15:01 10° NNW 01:18:47 17° N 01:22:29 10° NE night (unlit)
28 Nov - 03:02:00 10° NNW 03:07:10 29° NNE 03:12:14 10° E visible
28 Nov - 04:48:16 10° NW 04:54:13 84° SW 05:00:02 10° SSE visible
28 Nov - 06:36:04 10° WNW 06:39:40 17° WSW 06:43:15 10° SW visible
28 Nov - 19:59:23 10° SSW 20:05:23 52° ESE 20:11:15 10° NE visible
28 Nov - 21:46:04 10° WSW 21:51:55 43° NW 21:57:39 10° NNE visible
28 Nov - 23:35:40 10° WNW 23:39:54 19° NNW 23:44:04 10° NNE night (unlit)
29 Nov - 01:24:41 10° NNW 01:28:38 18° NNE 01:32:32 10° NE night (unlit)
29 Nov - 03:11:20 10° NNW 03:16:48 36° NE 03:22:09 10° ESE visible
29 Nov - 04:57:41 10° NW 05:03:30 61° WSW 05:09:12 10° SSE visible
29 Nov - 06:47:04 10° W 06:48:37 11° W 06:50:09 10° WSW visible
29 Nov - 18:26:02 10° SE 18:29:16 15° ESE 18:32:29 10° ENE visible
29 Nov - 20:08:27 10° SSW 20:14:39 71° ESE 20:20:41 10° NE visible
29 Nov - 21:55:56 10° W 22:01:30 34° NW 22:06:57 10° NNE visible
29 Nov - 23:45:48 10° NW 23:49:44 17° N 23:53:37 10° NNE night (unlit)
30 Nov - 01:34:13 10° NNW 01:38:28 19° NNE 01:42:39 10° ENE night (unlit)
30 Nov - 03:20:38 10° NNW 03:26:21 46° NE 03:31:56 10° ESE visible
30 Nov - 05:07:11 10° NW 05:12:42 43° WSW 05:18:09 10° S visible
30 Nov - 18:33:46 10° SSE 18:38:17 21° ESE 18:42:44 10° ENE visible
30 Nov - 20:17:44 10° SW 20:23:58 86° NW 20:30:04 10° NE visible
30 Nov - 22:05:56 10° W 22:11:09 28° NNW 22:16:16 10° NNE visible
